STARLINK-11127, 60119

Orbit data source: Space-Track

STARLINK-11127, 60119 is a payload satellite owned by SpaceX/Seattle (US) in LEO that was launched on Mon, 24 Jun 2024 UTC via an FALCON 9 launch vehicle from the Air Force Western Test Range (AFWTR). Payload-class satellites include a variety of spacecraft equipped with specific instruments for various scientific and technological missions. These include communications satellites like Starlink; space stations such as the ISS; scientific satellites like the Hubble; Earth observation satellites from companies like Planet Labs, Umbra, and HawkEye 360; GPS; miniature CubeSats for education and research; and military/defense satellites.

Loading next visibility...
Identifier
60119, 2024-118G
Orbit
LEO
Country
Flag of USUS
Related business
Manufacturer
SpaceX/Seattle
Mission
Operational Commercial Communications
Bus & Motor
STARLINK V2MD, Unknown motor
Mass
960 kg wet, ~910 kg dry
Launch date (UTC)
2024-06-24 (2 years ago)
Launch vehicle
FALCON 9
Launch site
Air Force Western Test Range (AFWTR)
Object type
Payload
Rocket body
Debris
Shape & HBR
Box + 2 Pan, 18.1 m
Radar Cross Section
36.964 m², Large (>1 m²)

Expand to show TLE details & history
Last TLE update: 15 hours ago

TLE from 15 hours ago
0 STARLINK-11127
1 60119U 24118G   26124.78230412  .00003486  00000-0  33591-4 0  9991
2 60119  53.1591 304.7172 0000842  95.3182 264.7932 15.69727799106809
Epoch: 2026-05-04T18:46Z
TLE epoch observation values (Epoch: 2026-05-04T18:46:31.075Z)
Latitude
-0.00005°
Longitude
160.42112°
Altitude
360.642 km
Speed
7.694 km/s
True Right ascension
20h 18m 52s
True Declination
0° 00' 00"
Sunlit
Object was in daylight at epoch
Visualization orbit readout
Latitude
Unknown
Longitude
Unknown
Altitude
Unknown
Speed
Unknown
Apparent Right ascension
Unknown
Apparent Declination
Unknown
Sunlit
N/A
Visualization observer readout
Local Sidereal Time
17:19:30
Azimuth
Unknown
Elevation
Unknown
Doppler factor
Unknown
Orbital elements
Apogee altitude
360.504 km
Perigee altitude
359.369 km
Semi-major axis
6,738.074 km
Eccentricity
0.00008
Inclination
53.1591°
RAAN
304.7172°
Arg. of periapsis
95.3182°
True anomaly
264.78359°
Mean anomaly
264.7932°
Eccentric anomaly
264.7884°
Mean motion
3.9241 °/min
Orbital period
91.74 mins
BSTAR
0.000033591
Loading maneuver chart data...
Computing Atmospheric mass density...
Loading historical data...
Loading historical data...
Loading historical data...
Loading historical data...
Loading historical data...
Loading historical data...
Loading historical data...

Documentation

Showing up to 5 results
|